When you browse on this site, cookies collect data to enhance your experience and personalize the content and advertising you see.
Visit our Privacy Policy to learn more. By continuing to use the site, you agree to this use of cookies and data.
  • In Romania
  • List of Countries
  • For 7 days
  • Water Temperature
  • Weather Map
  • Weather Widgets
  • user-avatar
    Login

    Hourly Weather Maloe Vishene

    Today, 17 October, Thursday

    Time Temperature Precipitation Wind Pressure Humidity
    00:00 +9°C° 0 mm 3 mps 738 mmHg 93%
    01:00 +9°C° 0 mm 3 mps 738 mmHg 93%
    02:00 +9°C° 0 mm 3 mps 737 mmHg 90%
    03:00 +9°C° 0 mm 3 mps 737 mmHg 91%
    04:00 +9°C° 0 mm 3 mps 737 mmHg 91%
    05:00 +9°C° 0 mm 3 mps 737 mmHg 91%
    06:00 +9°C° 0 mm 3 mps 737 mmHg 90%
    07:00 +9°C° 0 mm 3 mps 737 mmHg 89%
    08:00 +9°C° 0 mm 3 mps 737 mmHg 82%
    09:00 +10°C° 0 mm 3 mps 737 mmHg 81%
    10:00 +10°C° 0 mm 3 mps 737 mmHg 80%
    11:00 +11°C° 0 mm 3 mps 737 mmHg 79%
    12:00 +11°C° 0.4 mm 3 mps 737 mmHg 83%
    13:00 +11°C° 0.4 mm 3 mps 737 mmHg 86%
    14:00 +11°C° 0.4 mm 3 mps 737 mmHg 90%
    15:00 +11°C° 0 mm 3 mps 736 mmHg 90%
    16:00 +11°C° 0 mm 3 mps 736 mmHg 90%
    17:00 +10°C° 0 mm 3 mps 736 mmHg 89%
    18:00 +10°C° 0.9 mm 2 mps 736 mmHg 91%
    19:00 +10°C° 0.9 mm 2 mps 736 mmHg 93%
    20:00 +10°C° 0.9 mm 2 mps 736 mmHg 95%
    21:00 +9°C° 0.6 mm 2 mps 736 mmHg 95%
    22:00 +9°C° 0.6 mm 2 mps 736 mmHg 95%
    23:00 +8°C° 0.6 mm 2 mps 737 mmHg 94%

    Tomorrow, 18 October, Friday

    Time Temperature Precipitation Wind Pressure Humidity
    00:00 +8°C° 0 mm 2 mps 737 mmHg 95%
    01:00 +8°C° 0 mm 2 mps 737 mmHg 96%
    02:00 +7°C° 0 mm 2 mps 738 mmHg 96%
    03:00 +7°C° 0 mm 2 mps 738 mmHg 96%
    04:00 +7°C° 0 mm 2 mps 738 mmHg 96%
    05:00 +6°C° 0 mm 2 mps 738 mmHg 96%
    06:00 +7°C° 0 mm 2 mps 738 mmHg 95%
    07:00 +7°C° 0 mm 2 mps 739 mmHg 94%
    08:00 +8°C° 0 mm 2 mps 739 mmHg 93%
    09:00 +9°C° 0 mm 2 mps 740 mmHg 91%
    10:00 +10°C° 0 mm 2 mps 740 mmHg 89%
    11:00 +12°C° 0 mm 2 mps 740 mmHg 88%
    12:00 +12°C° 0 mm 2 mps 740 mmHg 88%
    13:00 +12°C° 0 mm 2 mps 740 mmHg 88%
    14:00 +12°C° 0 mm 2 mps 740 mmHg 89%
    15:00 +10°C° 0 mm 2 mps 740 mmHg 90%
    16:00 +10°C° 0 mm 2 mps 741 mmHg 91%
    17:00 +11°C° 0 mm 1 mps 741 mmHg 92%
    18:00 +10°C° 0 mm 1 mps 741 mmHg 93%
    19:00 +10°C° 0 mm 1 mps 741 mmHg 94%
    20:00 +10°C° 0 mm 1 mps 741 mmHg 94%
    21:00 +10°C° 0 mm 1 mps 741 mmHg 95%
    22:00 +10°C° 0 mm 1 mps 741 mmHg 96%
    23:00 +10°C° 0 mm 1 mps 741 mmHg 96%

    Day after tomorrow, 19 October, Saturday

    Time Temperature Precipitation Wind Pressure Humidity
    00:00 +10°C° 0 mm 1 mps 742 mmHg 97%
    01:00 +10°C° 0 mm 1 mps 742 mmHg 97%
    02:00 +10°C° 0 mm 1 mps 742 mmHg 97%
    03:00 +10°C° 0 mm 1 mps 742 mmHg 97%
    04:00 +9°C° 0 mm 2 mps 742 mmHg 97%
    05:00 +9°C° 0 mm 2 mps 742 mmHg 97%
    06:00 +9°C° 0 mm 2 mps 742 mmHg 96%
    07:00 +9°C° 0 mm 2 mps 742 mmHg 94%
    08:00 +10°C° 0 mm 2 mps 742 mmHg 93%
    09:00 +10°C° 0 mm 2 mps 742 mmHg 92%
    10:00 +10°C° 0 mm 2 mps 742 mmHg 90%
    11:00 +10°C° 0 mm 2 mps 742 mmHg 89%
    12:00 +12°C° 0 mm 2 mps 742 mmHg 87%
    13:00 +12°C° 0 mm 2 mps 742 mmHg 86%
    14:00 +12°C° 0 mm 3 mps 742 mmHg 84%
    15:00 +12°C° 0 mm 3 mps 742 mmHg 86%
    16:00 +11°C° 0 mm 3 mps 742 mmHg 88%
    17:00 +11°C° 0 mm 3 mps 742 mmHg 89%
    18:00 +11°C° 0 mm 3 mps 742 mmHg 91%
    19:00 +10°C° 0 mm 3 mps 742 mmHg 92%
    20:00 +10°C° 0 mm 3 mps 742 mmHg 93%
    21:00 +10°C° 0 mm 3 mps 742 mmHg 93%
    22:00 +9°C° 0 mm 2 mps 742 mmHg 94%
    23:00 +9°C° 0 mm 2 mps 742 mmHg 95%

    20 October, Sunday

    Time Temperature Precipitation Wind Pressure Humidity
    00:00 +9°C° 0 mm 2 mps 742 mmHg 95%
    01:00 +9°C° 0 mm 2 mps 742 mmHg 96%
    02:00 +8°C° 0 mm 2 mps 742 mmHg 96%
    03:00 +8°C° 0 mm 2 mps 742 mmHg 96%
    04:00 +8°C° 0 mm 2 mps 742 mmHg 96%
    05:00 +9°C° 0 mm 1 mps 742 mmHg 96%
    06:00 +10°C° 0.2 mm 1 mps 742 mmHg 96%
    07:00 +9°C° 0.2 mm 2 mps 742 mmHg 96%
    08:00 +9°C° 0.2 mm 2 mps 742 mmHg 96%
    09:00 +10°C° 0.9 mm 2 mps 742 mmHg 96%
    10:00 +10°C° 0.9 mm 2 mps 742 mmHg 95%
    11:00 +10°C° 0.9 mm 2 mps 742 mmHg 95%
    12:00 +12°C° 0.1 mm 2 mps 742 mmHg 94%
    13:00 +12°C° 0.1 mm 2 mps 741 mmHg 92%
    14:00 +12°C° 0.1 mm 2 mps 741 mmHg 91%
    15:00 +12°C° 0 mm 2 mps 741 mmHg 92%
    16:00 +11°C° 0 mm 1 mps 741 mmHg 93%
    17:00 +11°C° 0 mm 1 mps 741 mmHg 95%
    18:00 +11°C° 0 mm 1 mps 741 mmHg 95%
    19:00 +10°C° 0 mm 1 mps 742 mmHg 96%
    20:00 +10°C° 0 mm 1 mps 742 mmHg 96%
    21:00 +10°C° 0 mm 1 mps 742 mmHg 96%
    22:00 +10°C° 0 mm 1 mps 742 mmHg 96%
    23:00 +10°C° 0 mm 1 mps 741 mmHg 96%

    21 October, Monday

    Time Temperature Precipitation Wind Pressure Humidity
    00:00 +10°C° 0 mm 1 mps 741 mmHg 96%
    01:00 +10°C° 0 mm 1 mps 741 mmHg 96%
    02:00 +9°C° 0 mm 2 mps 741 mmHg 96%
    03:00 +9°C° 0 mm 2 mps 741 mmHg 96%
    04:00 +9°C° 0 mm 2 mps 741 mmHg 96%
    05:00 +8°C° 0 mm 2 mps 740 mmHg 96%
    06:00 +9°C° 0 mm 2 mps 740 mmHg 95%
    07:00 +9°C° 0 mm 3 mps 740 mmHg 95%
    08:00 +9°C° 0 mm 3 mps 740 mmHg 94%
    09:00 +10°C° 0 mm 3 mps 740 mmHg 90%
    10:00 +12°C° 0 mm 4 mps 740 mmHg 86%
    11:00 +13°C° 0 mm 4 mps 740 mmHg 82%
    12:00 +13°C° 0 mm 4 mps 740 mmHg 82%
    13:00 +14°C° 0 mm 3 mps 740 mmHg 81%
    14:00 +14°C° 0 mm 3 mps 740 mmHg 81%
    15:00 +13°C° 0 mm 3 mps 740 mmHg 85%
    16:00 +13°C° 0 mm 2 mps 740 mmHg 88%
    17:00 +13°C° 0 mm 1 mps 740 mmHg 92%
    18:00 +12°C° 0 mm 1 mps 740 mmHg 93%
    19:00 +12°C° 0 mm 1 mps 740 mmHg 94%
    20:00 +11°C° 0 mm 1 mps 740 mmHg 94%
    21:00 +11°C° 0 mm 1 mps 740 mmHg 95%
    22:00 +10°C° 0 mm 0 mps 739 mmHg 95%
    23:00 +9°C° 0 mm 0 mps 739 mmHg 96%

    22 October, Tuesday

    Time Temperature Precipitation Wind Pressure Humidity
    00:00 +9°C° 0 mm 0 mps 739 mmHg 96%
    01:00 +9°C° 0 mm 0 mps 738 mmHg 96%
    02:00 +9°C° 0 mm 0 mps 738 mmHg 96%
    03:00 +10°C° 0.2 mm 1 mps 738 mmHg 97%
    04:00 +10°C° 0.2 mm 1 mps 738 mmHg 97%
    05:00 +10°C° 0.2 mm 1 mps 738 mmHg 98%
    06:00 +10°C° 1.5 mm 1 mps 737 mmHg 97%
    07:00 +9°C° 1.5 mm 2 mps 737 mmHg 97%
    08:00 +9°C° 1.5 mm 2 mps 737 mmHg 97%
    09:00 +9°C° 1.3 mm 2 mps 737 mmHg 96%
    10:00 +9°C° 1.3 mm 2 mps 737 mmHg 95%
    11:00 +9°C° 1.3 mm 2 mps 737 mmHg 94%
    12:00 +8°C° 0.3 mm 2 mps 737 mmHg 94%
    13:00 +8°C° 0.3 mm 2 mps 737 mmHg 94%
    14:00 +8°C° 0.3 mm 2 mps 737 mmHg 94%
    15:00 +8°C° 0.8 mm 2 mps 737 mmHg 93%
    16:00 +8°C° 0.8 mm 3 mps 738 mmHg 92%
    17:00 +7°C° 0.8 mm 3 mps 738 mmHg 91%
    18:00 +7°C° 0.1 mm 3 mps 739 mmHg 90%
    19:00 +7°C° 0.1 mm 3 mps 739 mmHg 89%
    20:00 +7°C° 0.1 mm 3 mps 740 mmHg 89%
    21:00 +6°C° 0 mm 2 mps 741 mmHg 91%
    22:00 +5°C° 0 mm 2 mps 741 mmHg 93%
    23:00 +5°C° 0 mm 1 mps 742 mmHg 95%
    Show more